London-Corbin, KY

5:15 AM EDT on June 26, 2017 (GMT -0400)
London-Corbin / McKee

Weather History for KLOZ - January, 2014

Change the Weather History Date:

Saturday, January 25, 2014

  Actual Average Record
Temperature  
Mean Temperature 29 °F 36 °F  
Max Temperature 36 °F 45 °F 71 °F (1967)
Min Temperature 22 °F 26 °F -10 °F (1963)
Degree Days  
Heating Degree Days 36 29  
Month to date heating degree days 874 742  
Since 1 July heating degree days 2481 2394  
Cooling Degree Days 0 0  
Month to date cooling degree days 0 0  
Year to date cooling degree days 0 0  
Moisture  
Dew Point 14 °F    
Average Humidity 60    
Maximum Humidity 88    
Minimum Humidity 32    
Precipitation  
Precipitation 0.09 in 0.11 in 1.53 in (1978)
Month to date precipitation 2.28 2.84  
Year to date precipitation 2.28 2.84  
Sea Level Pressure  
Sea Level Pressure 29.81 in    
Wind  
Wind Speed 14 mph (WSW)    
Max Wind Speed 24 mph    
Max Gust Speed 32 mph    
Visibility 7 miles    
Events Fog , Snow    
T = Trace of Precipitation, MM = Missing Value Source: NWS Daily Summary

Daily Weather History Graph

Daily Weather History Graph

Search for Another Location

Airport or City:

Trip Planner

Search our weather history database for the weather conditions in past years. The results will help you decide how hot, cold, wet, or windy it might be!

Date:

Astronomy

Jan. 25, 2014 Rise Set
Actual Time 7:44 AM EST 5:53 PM EST
Civil Twilight 7:16 AM EST 6:21 PM EST
Nautical Twilight 6:44 AM EST 6:52 PM EST
Astronomical Twilight 6:14 AM EST 7:23 PM EST
Moon 2:15 AM EST (1/25) 12:53 PM EST (1/25)
Length of Visible Light 11h 05m
Length of Day
10h 09m
Waning Crescent, 34% of the Moon is Illuminated
Jan 25
Waning Crescent
Jan 30
New
Feb 6
First Quarter
Feb 14
Full
Feb 22
Last Quarter

Hourly Weather History & Observations

Time (EST) Temp. Windchill Dew Point Humidity Pressure Visibility Wind Dir Wind Speed Gust Speed Precip Events Conditions
12:53 AM 25.0 °F 13.6 °F -2.9 °F 30% 30.05 in 10.0 mi SW 12.7 mph 21.9 mph N/A   Clear
1:53 AM 25.0 °F 14.2 °F -2.0 °F 31% 29.99 in 10.0 mi SW 11.5 mph 28.8 mph N/A   Clear
2:53 AM 25.0 °F 13.1 °F -0.9 °F 33% 29.97 in 10.0 mi SW 13.8 mph 24.2 mph N/A   Mostly Cloudy
3:53 AM 25.0 °F 11.7 °F -0.9 °F 33% 29.92 in 10.0 mi SSW 17.3 mph 24.2 mph N/A   Overcast
4:53 AM 26.1 °F 12.7 °F -0.9 °F 31% 29.86 in 10.0 mi SSW 18.4 mph 27.6 mph N/A   Overcast
5:53 AM 26.1 °F 13.1 °F -0.0 °F 32% 29.84 in 10.0 mi SSW 17.3 mph 25.3 mph N/A   Overcast
6:53 AM 25.0 °F 13.1 °F 6.1 °F 45% 29.81 in 8.0 mi SW 13.8 mph 28.8 mph 0.00 in   Overcast
7:53 AM 25.0 °F 13.6 °F 10.9 °F 55% 29.80 in 5.0 mi SW 12.7 mph 29.9 mph 0.00 in Snow Light Snow
8:03 AM 24.1 °F 12.0 °F 12.0 °F 60% 29.76 in 4.0 mi SW 13.8 mph 18.4 mph 0.00 in Snow Light Snow
8:11 AM 24.1 °F 13.1 °F 12.9 °F 62% 29.76 in 1.8 mi SW 11.5 mph - 0.00 in Snow Light Snow
8:34 AM 23.0 °F 11.1 °F 16.0 °F 74% 29.76 in 0.8 mi SW 12.7 mph 23.0 mph 0.00 in Snow Light Snow
8:53 AM 21.9 °F 11.0 °F 18.0 °F 85% 29.80 in 0.5 mi SSW 10.4 mph - 0.00 in Fog , Snow Snow
9:09 AM 21.9 °F 9.8 °F 18.0 °F 85% 29.76 in 0.2 mi SSW 12.7 mph - 0.01 in Fog , Snow Snow
9:53 AM 21.9 °F 11.7 °F 18.0 °F 85% 29.79 in 0.5 mi SSW 9.2 mph - 0.03 in Fog , Snow Snow
10:53 AM 23.0 °F 12.4 °F 19.0 °F 85% 29.80 in 0.5 mi SSW 10.4 mph - 0.04 in Fog , Snow Snow
11:22 AM 24.1 °F 15.2 °F 19.9 °F 84% 29.75 in 0.8 mi SW 8.1 mph 17.3 mph 0.01 in Snow Light Snow
11:34 AM 25.0 °F 14.8 °F 19.9 °F 81% 29.75 in 2.0 mi SW 10.4 mph - 0.01 in Snow Light Snow
11:42 AM 25.0 °F 14.8 °F 19.9 °F 81% 29.74 in 5.0 mi SW 10.4 mph - 0.01 in   Overcast
11:53 AM 26.1 °F 13.6 °F 21.0 °F 81% 29.77 in 9.0 mi WSW 16.1 mph 20.7 mph 0.01 in   Overcast
12:45 PM 28.0 °F 16.5 °F 21.0 °F 75% 29.72 in 10.0 mi WSW 15.0 mph 27.6 mph 0.01 in   Overcast
12:53 PM 28.0 °F 16.1 °F 21.0 °F 75% 29.75 in 10.0 mi WSW 16.1 mph - 0.01 in   Overcast
1:45 PM 30.9 °F 19.4 °F 21.9 °F 69% 29.69 in 10.0 mi WSW 17.3 mph 26.5 mph N/A   Overcast
1:53 PM 30.9 °F 19.8 °F 21.0 °F 67% 29.72 in 10.0 mi WSW 16.1 mph - N/A   Overcast
2:53 PM 33.1 °F 22.2 °F 21.0 °F 61% 29.72 in 10.0 mi WSW 17.3 mph - N/A   Overcast
3:53 PM 35.1 °F 24.5 °F 19.9 °F 54% 29.71 in 10.0 mi West 18.4 mph 27.6 mph N/A   Partly Cloudy
4:53 PM 34.0 °F 23.8 °F 21.9 °F 61% 29.73 in 4.0 mi West 16.1 mph 28.8 mph 0.00 in Snow Light Snow
5:53 PM 36.0 °F 27.5 °F 21.0 °F 55% 29.75 in 10.0 mi West 12.7 mph - 0.00 in   Overcast
6:17 PM 34.0 °F 22.1 °F 27.0 °F 75% 29.75 in 2.5 mi West 21.9 mph 28.8 mph 0.00 in Snow Light Snow
6:25 PM 34.0 °F 22.7 °F 28.0 °F 79% 29.75 in 3.0 mi WSW 19.6 mph 27.6 mph 0.00 in Snow Light Snow
6:53 PM 34.0 °F 23.4 °F 28.0 °F 79% 29.80 in 10.0 mi West 17.3 mph 28.8 mph 0.00 in   Mostly Cloudy
7:53 PM 34.0 °F 23.4 °F 21.9 °F 61% 29.84 in 10.0 mi West 17.3 mph 21.9 mph N/A   Clear
8:53 PM 30.0 °F 20.0 °F 8.1 °F 40% 29.89 in 10.0 mi WNW 12.7 mph - N/A   Clear
9:53 PM 27.0 °F 16.7 °F 1.9 °F 34% 29.94 in 10.0 mi NW 11.5 mph - N/A   Clear
10:53 PM 25.0 °F 15.5 °F 1.9 °F 37% 29.98 in 10.0 mi WNW 9.2 mph - N/A   Clear
11:53 PM 23.0 °F 14.7 °F 1.0 °F 39% 29.97 in 10.0 mi NNW 6.9 mph - N/A   Clear